Location: Bush Observatory
(40.2653°N, 94.3194°W)
Time: 16:43:40
(UTC-06:00)

Vanguard 1 - Visible Passes

Search period start: 20 January 2018 00:00
Search period end: 30 January 2018 00:00
Orbit: 649 x 3834 km, 34.3° (Epoch: 19 January)

Date Brightness Start Highest point End Pass type
(mag) Time Alt. Az. Time Alt. Az. Time Alt. Az.
20 Jan 13.4 01:32:51 21° E 01:32:51 21° E 01:37:38 10° E visible
20 Jan 12.1 03:45:35 62° S 03:45:35 62° S 04:05:05 10° ESE visible
20 Jan 12.8 05:58:18 20° W 06:09:12 41° SSW 06:29:21 10° SSE visible
21 Jan 13.2 01:52:44 26° ESE 01:52:44 26° ESE 01:59:16 10° E visible
21 Jan 12.1 04:05:27 57° SSW 04:06:15 57° SSW 04:26:16 10° SE visible
21 Jan 13.0 06:18:11 14° W 06:30:23 33° SSW 06:49:05 10° SSE visible
22 Jan 13.0 02:12:39 31° ESE 02:12:39 31° ESE 02:20:52 10° ESE visible
22 Jan 12.2 04:25:22 48° SW 04:27:29 50° SSW 04:47:10 10° SE visible
22 Jan 13.2 06:38:43 10° W 06:51:32 26° SW 07:08:12 10° S visible
23 Jan 12.8 02:32:35 35° ESE 02:32:35 35° ESE 02:42:21 10° ESE visible
23 Jan 12.3 04:45:19 39° SW 04:48:44 43° SSW 05:07:44 10° SE visible
23 Jan 13.4 07:01:32 10° WSW 07:12:39 20° SW 07:26:21 10° S visible
24 Jan 12.6 02:52:33 39° SE 02:52:33 39° SE 03:03:42 10° ESE visible
24 Jan 12.5 05:05:16 31° WSW 05:09:57 36° SSW 05:27:54 10° SSE visible
25 Jan 12.5 03:12:32 41° SSE 03:12:32 41° SSE 03:24:49 10° SE visible
25 Jan 12.8 05:25:16 23° WSW 05:31:10 29° SSW 05:47:31 10° SSE visible
26 Jan 13.7 01:19:49 11° ESE 01:19:49 11° ESE 01:20:05 10° ESE visible
26 Jan 12.5 03:32:33 40° S 03:32:33 40° S 03:45:39 10° SE visible
26 Jan 13.0 05:45:17 16° WSW 05:52:24 23° SW 06:06:25 10° S visible
27 Jan 13.6 01:39:51 14° ESE 01:39:51 14° ESE 01:41:28 10° ESE visible
27 Jan 12.6 03:52:34 36° S 03:52:34 36° S 04:06:08 10° SE visible
27 Jan 13.2 06:05:19 10° WSW 06:13:37 16° SW 06:24:07 10° S visible
28 Jan 13.4 01:59:54 16° SE 01:59:54 16° SE 02:02:41 10° ESE visible
28 Jan 12.7 04:12:38 31° SSW 04:12:38 31° SSW 04:26:10 10° SSE visible
28 Jan 13.5 06:31:59 10° SW 06:34:54 11° SW 06:37:59 10° SSW visible
29 Jan 13.3 02:19:58 18° SE 02:19:58 18° SE 02:23:41 10° SE visible
29 Jan 12.9 04:32:42 24° SSW 04:32:42 24° SSW 04:45:37 10° SSE visible
